,,Stat6,,Stat2,,Stat8,,Stat9,,Stat10,,Wind1,,Wind1,
time,status,PA1M_AVG,status,PR1M_SUM,status,RH1M_AVG,status,SR1M_AVG,status,TA1M_AVG,status,W1dAve1m,status,W1sAve1m,
2006-04-08, 00:00:00,VALID,917.299,VALID,0,VALID,100,VALID,-0.152827,VALID,20.0081,VALID,343,VALID,0.0415396,
2006-04-08, 00:01:00,VALID,917.304,VALID,0,VALID,100,VALID,-0.135847,VALID,19.8898,VALID,343,VALID,0,
2006-04-08, 00:02:00,VALID,917.299,VALID,0,VALID,100,VALID,-0.135847,VALID,19.9229,VALID,343,VALID,0.0949836,
2006-04-08, 00:03:00,VALID,917.291,VALID,0,VALID,100,VALID,-0.118866,VALID,20.5941,VALID,343,VALID,0.0360054,
2006-04-08, 00:04:00,VALID,917.28,VALID,0,VALID,100,VALID,-0.118866,VALID,19.9477,VALID,343,VALID,0,
2006-04-08, 00:05:00,VALID,917.275,VALID,0,VALID,100,VALID,-0.135847,VALID,20.0703,VALID,343,VALID,0.0301599,
2006-04-08, 00:06:00,VALID,917.261,VALID,0,VALID,100,VALID,-0.237732,VALID,20.936,VALID,343,VALID,0.0274346,
2006-04-08, 00:07:00,VALID,917.252,VALID,0,VALID,100,VALID,-0.169808,VALID,20.5448,VALID,343,VALID,0.0626817,
2006-04-08, 00:08:00,VALID,917.248,VALID,0,VALID,100,VALID,-0.169808,VALID,20.793,VALID,343,VALID,0.000181686,
2006-04-08, 00:09:00,VALID,917.256,VALID,0,VALID,100,VALID,-0.152827,VALID,19.5609,VALID,343,VALID,0.117365,
2006-04-08, 00:10:00,VALID,917.274,VALID,0,VALID,100,VALID,-0.169808,VALID,20.2159,VALID,343,VALID,0.0455729,
2006-04-08, 00:11:00,VALID,917.293,VALID,0,VALID,100,VALID,-0.152827,VALID,20.2839,VALID,343,VALID,0.0931641,
2006-04-08, 00:12:00,VALID,917.328,VALID,0,VALID,100,VALID,-0.152827,VALID,20.3615,VALID,343,VALID,0.318979,
2006-04-08, 00:13:00,VALID,917.357,VALID,0,VALID,100,VALID,-0.20377,VALID,20.7621,VALID,343,VALID,0.354539,
2006-04-08, 00:14:00,VALID,917.371,VALID,0,VALID,100,VALID,-0.152827,VALID,20.533,VALID,343,VALID,0.174107,
2006-04-08, 00:15:00,VALID,917.379,VALID,0,VALID,100,VALID,-0.0679233,VALID,20.1965,VALID,343,VALID,0.295732,
2006-04-08, 00:16:00,VALID,917.38,VALID,0,VALID,100,VALID,-0.0509425,VALID,19.7923,VALID,343,VALID,0.28468,
2006-04-08, 00:17:00,VALID,917.371,VALID,0,VALID,100,VALID,-0.20377,VALID,19.8087,VALID,343,VALID,0.233994,
2006-04-08, 00:18:00,VALID,917.371,VALID,0,VALID,100,VALID,-0.152827,VALID,20.2536,VALID,343,VALID,0.367759,
2006-04-08, 00:19:00,VALID,917.37,VALID,0,VALID,100,VALID,-0.101885,VALID,21.606,VALID,343,VALID,0.399891,
2006-04-08, 00:20:00,VALID,917.366,VALID,0,VALID,100,VALID,-0.118866,VALID,20.2664,VALID,343,VALID,0.269618,
2006-04-08, 00:21:00,VALID,917.341,VALID,0,VALID,100,VALID,-0.101885,VALID,19.5879,VALID,344,VALID,0.313834,
2006-04-08, 00:22:00,VALID,917.334,VALID,0,VALID,100,VALID,-0.118866,VALID,20.053,VALID,360,VALID,0.310454,
2006-04-08, 00:23:00,VALID,917.312,VALID,0,VALID,100,VALID,-0.101885,VALID,20.2841,VALID,359,VALID,0.169567,
2006-04-08, 00:24:00,VALID,917.296,VALID,0,VALID,100,VALID,-0.186789,VALID,19.9019,VALID,21,VALID,0.584635,
2006-04-08, 00:25:00,VALID,917.311,VALID,0,VALID,100,VALID,-0.118866,VALID,19.9997,VALID,16,VALID,0.507994,
2006-04-08, 00:26:00,VALID,917.318,VALID,0,VALID,100,VALID,-0.20377,VALID,19.7771,VALID,306,VALID,0.394436,
2006-04-08, 00:27:00,VALID,917.337,VALID,0,VALID,100,VALID,-0.186789,VALID,21.0352,VALID,306,VALID,0.0200893,
2006-04-08, 00:28:00,VALID,917.326,VALID,0,VALID,100,VALID,-0.101885,VALID,19.9839,VALID,306,VALID,0.0870536,
2006-04-08, 00:29:00,VALID,917.3,VALID,0,VALID,100,VALID,-0.101885,VALID,21.1085,VALID,306,VALID,0.167151,
2006-04-08, 00:30:00,VALID,917.275,VALID,0,VALID,100,VALID,-0.169808,VALID,19.6588,VALID,306,VALID,0.0442708,
2006-04-08, 00:31:00,VALID,917.265,VALID,0,VALID,100,VALID,-0.0849042,VALID,20.4486,VALID,306,VALID,0.0293899,
2006-04-08, 00:32:00,VALID,917.231,VALID,0,VALID,100,VALID,-0.20377,VALID,20.2609,VALID,306,VALID,0.149805,
2006-04-08, 00:33:00,VALID,917.225,VALID,0,VALID,100,VALID,-0.20377,VALID,20.4934,VALID,306,VALID,0.0141715,
2006-04-08, 00:34:00,VALID,917.22,VALID,0,VALID,100,VALID,-0.169808,VALID,19.9293,VALID,306,VALID,0.0645833,
2006-04-08, 00:35:00,VALID,917.222,VALID,0,VALID,100,VALID,-0.20377,VALID,20.273,VALID,306,VALID,0,
2006-04-08, 00:36:00,VALID,917.229,VALID,0,VALID,100,VALID,-0.186789,VALID,20.0383,VALID,306,VALID,0,
2006-04-08, 00:37:00,VALID,917.231,VALID,0,VALID,100,VALID,-0.186789,VALID,20.3632,VALID,306,VALID,0,
2006-04-08, 00:38:00,VALID,917.239,VALID,0,VALID,100,VALID,-0.20377,VALID,20.0593,VALID,306,VALID,0,
2006-04-08, 00:39:00,VALID,917.236,VALID,0,VALID,100,VALID,-0.169808,VALID,19.8219,VALID,306,VALID,0,
2006-04-08, 00:40:00,VALID,917.241,VALID,0,VALID,100,VALID,-0.0849042,VALID,20.2729,VALID,306,VALID,0,
2006-04-08, 00:41:00,VALID,917.257,VALID,0,VALID,100,VALID,-0.152827,VALID,19.8418,VALID,306,VALID,0,
2006-04-08, 00:42:00,VALID,917.277,VALID,0,VALID,100,VALID,-0.0849042,VALID,20.2241,VALID,306,VALID,0,
2006-04-08, 00:43:00,VALID,917.289,VALID,0,VALID,100,VALID,-0.101885,VALID,20.8944,VALID,306,VALID,0,
2006-04-08, 00:44:00,VALID,917.268,VALID,0,VALID,100,VALID,-0.20377,VALID,19.5468,VALID,306,VALID,0,
2006-04-08, 00:45:00,VALID,917.26,VALID,0,VALID,100,VALID,-0.118866,VALID,20.1449,VALID,306,VALID,0,
2006-04-08, 00:46:00,VALID,917.248,VALID,0,VALID,100,VALID,-0.169808,VALID,19.5496,VALID,306,VALID,0,
2006-04-08, 00:47:00,VALID,917.238,VALID,0,VALID,100,VALID,-0.152827,VALID,19.0908,VALID,306,VALID,0,
2006-04-08, 00:48:00,VALID,917.231,VALID,0,VALID,100,VALID,-0.152827,VALID,19.8676,VALID,306,VALID,0,
2006-04-08, 00:49:00,VALID,917.212,VALID,0,VALID,100,VALID,-0.152827,VALID,19.7259,VALID,306,VALID,0,
2006-04-08, 00:50:00,VALID,917.2,VALID,0,VALID,100,VALID,-0.152827,VALID,18.7511,VALID,306,VALID,0,
2006-04-08, 00:51:00,VALID,917.203,VALID,0,VALID,100,VALID,-0.169808,VALID,19.7855,VALID,306,VALID,0,
2006-04-08, 00:52:00,VALID,917.193,VALID,0,VALID,100,VALID,-0.135847,VALID,20.1402,VALID,306,VALID,0,
2006-04-08, 00:53:00,VALID,917.182,VALID,0,VALID,100,VALID,-0.152827,VALID,19.8963,VALID,306,VALID,0.0457849,
2006-04-08, 00:54:00,VALID,917.166,VALID,0,VALID,100,VALID,-0.152827,VALID,20.684,VALID,306,VALID,0,
2006-04-08, 00:55:00,VALID,917.164,VALID,0,VALID,100,VALID,-0.135847,VALID,20.1133,VALID,306,VALID,0,
2006-04-08, 00:56:00,VALID,917.169,VALID,0,VALID,100,VALID,-0.135847,VALID,19.8136,VALID,305,VALID,0.117188,
2006-04-08, 00:57:00,VALID,917.174,VALID,0,VALID,100,VALID,-0.118866,VALID,19.3609,VALID,304,VALID,0,
2006-04-08, 00:58:00,VALID,917.172,VALID,0,VALID,100,VALID,-0.135847,VALID,19.4567,VALID,304,VALID,0.00109012,
2006-04-08, 00:59:00,VALID,917.171,VALID,0,VALID,100,VALID,-0.0679233,VALID,20.4779,VALID,304,VALID,0.0415396,
2006-04-08, 01:00:00,VALID,917.178,VALID,0,VALID,100,VALID,-0.0849042,VALID,20.492,VALID,304,VALID,0,
2006-04-08, 01:01:00,VALID,917.175,VALID,0,VALID,100,VALID,-0.0849042,VALID,19.9581,VALID,304,VALID,0,
2006-04-08, 01:02:00,VALID,917.151,VALID,0,VALID,100,VALID,-0.0849042,VALID,20.3516,VALID,304,VALID,0.228277,
2006-04-08, 01:03:00,VALID,917.154,VALID,0,VALID,100,VALID,-0.101885,VALID,19.8646,VALID,304,VALID,0.259909,
2006-04-08, 01:04:00,VALID,917.15,VALID,0,VALID,100,VALID,-0.0849042,VALID,20.1457,VALID,305,VALID,0.457485,
2006-04-08, 01:05:00,VALID,917.149,VALID,0,VALID,100,VALID,-0.0679233,VALID,19.5444,VALID,315,VALID,0.455357,
2006-04-08, 01:06:00,VALID,917.158,VALID,0,VALID,100,VALID,-0.0509425,VALID,19.258,VALID,324,VALID,0.439135,
2006-04-08, 01:07:00,VALID,917.169,VALID,0,VALID,100,VALID,-0.186789,VALID,19.5086,VALID,324,VALID,0.282158,
2006-04-08, 01:08:00,VALID,917.177,VALID,0,VALID,100,VALID,-0.135847,VALID,20.6603,VALID,324,VALID,0.234375,
2006-04-08, 01:09:00,VALID,917.191,VALID,0,VALID,100,VALID,-0.20377,VALID,19.7051,VALID,324,VALID,0,
2006-04-08, 01:10:00,VALID,917.198,VALID,0,VALID,100,VALID,-0.20377,VALID,20.1241,VALID,324,VALID,0.0245808,
2006-04-08, 01:11:00,VALID,917.205,VALID,0,VALID,100,VALID,-0.186789,VALID,19.4695,VALID,324,VALID,0.0796131,
2006-04-08, 01:12:00,VALID,917.208,VALID,0,VALID,100,VALID,-0.152827,VALID,19.2033,VALID,324,VALID,0,
2006-04-08, 01:13:00,VALID,917.207,VALID,0,VALID,100,VALID,-0.169808,VALID,20.4097,VALID,324,VALID,0,
2006-04-08, 01:14:00,VALID,917.214,VALID,0,VALID,100,VALID,-0.186789,VALID,19.5314,VALID,324,VALID,0,
2006-04-08, 01:15:00,VALID,917.219,VALID,0,VALID,100,VALID,-0.135847,VALID,20.0835,VALID,324,VALID,0,
2006-04-08, 01:16:00,VALID,917.236,VALID,0,VALID,100,VALID,-0.186789,VALID,19.1468,VALID,324,VALID,0,
2006-04-08, 01:17:00,VALID,917.224,VALID,0,VALID,100,VALID,-0.135847,VALID,19.3558,VALID,324,VALID,0,
2006-04-08, 01:18:00,VALID,917.21,VALID,0,VALID,100,VALID,-0.186789,VALID,20.357,VALID,324,VALID,0,
2006-04-08, 01:19:00,VALID,917.197,VALID,0,VALID,100,VALID,-0.186789,VALID,20.0718,VALID,324,VALID,0,
2006-04-08, 01:20:00,VALID,917.186,VALID,0,VALID,100,VALID,-0.186789,VALID,20.3487,VALID,324,VALID,0,
2006-04-08, 01:21:00,VALID,917.175,VALID,0,VALID,100,VALID,-0.186789,VALID,21.4519,VALID,324,VALID,0,
2006-04-08, 01:22:00,VALID,917.158,VALID,0,VALID,100,VALID,-0.20377,VALID,20.5067,VALID,324,VALID,0,
2006-04-08, 01:23:00,VALID,917.148,VALID,0,VALID,100,VALID,-0.169808,VALID,20.4684,VALID,324,VALID,0,
2006-04-08, 01:24:00,VALID,917.133,VALID,0,VALID,100,VALID,-0.169808,VALID,20.6704,VALID,324,VALID,0,
2006-04-08, 01:25:00,VALID,917.116,VALID,0,VALID,100,VALID,-0.101885,VALID,20.8939,VALID,324,VALID,0,
2006-04-08, 01:26:00,VALID,917.1,VALID,0,VALID,100,VALID,-0.101885,VALID,19.2388,VALID,324,VALID,0,
2006-04-08, 01:27:00,VALID,917.085,VALID,0,VALID,100,VALID,-0.101885,VALID,19.9775,VALID,324,VALID,0,
2006-04-08, 01:28:00,VALID,917.063,VALID,0,VALID,100,VALID,-0.0849042,VALID,20.7171,VALID,324,VALID,0,
2006-04-08, 01:29:00,VALID,917.046,VALID,0,VALID,100,VALID,-0.118866,VALID,19.6373,VALID,324,VALID,0.336111,
2006-04-08, 01:30:00,VALID,917.03,VALID,0,VALID,100,VALID,-0.101885,VALID,20.9631,VALID,324,VALID,0.348899,
2006-04-08, 01:31:00,VALID,917.024,VALID,0,VALID,100,VALID,-0.0679233,VALID,19.3307,VALID,324,VALID,0.312872,
2006-04-08, 01:32:00,VALID,917.009,VALID,0,VALID,100,VALID,-0.101885,VALID,19.6867,VALID,324,VALID,0.440874,
2006-04-08, 01:33:00,VALID,917.003,VALID,0,VALID,100,VALID,-0.118866,VALID,19.1681,VALID,324,VALID,0.292111,
2006-04-08, 01:34:00,VALID,916.999,VALID,0,VALID,100,VALID,-0.101885,VALID,19.9758,VALID,324,VALID,0.175102,
2006-04-08, 01:35:00,VALID,916.985,VALID,0,VALID,100,VALID,-0.101885,VALID,19.9216,VALID,326,VALID,0.355469,
2006-04-08, 01:36:00,VALID,916.964,VALID,0,VALID,100,VALID,-0.118866,VALID,20.684,VALID,35,VALID,0.37718,
2006-04-08, 01:37:00,VALID,916.928,VALID,0,VALID,100,VALID,-0.186789,VALID,20.473,VALID,126,VALID,0.589063,
2006-04-08, 01:38:00,VALID,916.904,VALID,0,VALID,100,VALID,-0.101885,VALID,19.6338,VALID,123,VALID,0.543968,
2006-04-08, 01:39:00,VALID,916.887,VALID,0,VALID,100,VALID,-1,VALID,20.338,VALID,122,VALID,0.611923,
2006-04-08, 01:40:00,VALID,916.859,VALID,0,VALID,100,VALID,-1,VALID,19.6113,VALID,119,VALID,0.621548,
2006-04-08, 01:41:00,VALID,916.846,VALID,0,VALID,100,VALID,-0.850314,VALID,20.6479,VALID,119,VALID,0.668857,
2006-04-08, 01:42:00,VALID,916.823,VALID,0,VALID,100,VALID,-0.101885,VALID,20.3535,VALID,119,VALID,0.722301,
2006-04-08, 01:43:00,VALID,916.81,VALID,0,VALID,100,VALID,-0.101885,VALID,20.6165,VALID,119,VALID,0.529433,
2006-04-08, 01:44:00,VALID,916.803,VALID,0,VALID,100,VALID,-0.101885,VALID,19.31,VALID,119,VALID,0.419667,
2006-04-08, 01:45:00,VALID,916.79,VALID,0,VALID,100,VALID,-0.118866,VALID,19.5594,VALID,120,VALID,0.357701,
2006-04-08, 01:46:00,VALID,916.799,VALID,0,VALID,100,VALID,-0.101885,VALID,18.2135,VALID,152,VALID,0.66183,
2006-04-08, 01:47:00,VALID,916.779,VALID,0,VALID,100,VALID,-0.118866,VALID,19.7669,VALID,164,VALID,0.879987,
2006-04-08, 01:48:00,VALID,916.76,VALID,0,VALID,100,VALID,-0.101885,VALID,19.2154,VALID,166,VALID,0.945871,
2006-04-08, 01:49:00,VALID,916.754,VALID,0,VALID,100,VALID,-0.118866,VALID,20.0206,VALID,171,VALID,0.81622,
2006-04-08, 01:50:00,VALID,916.748,VALID,0,VALID,100,VALID,-0.0849042,VALID,20.1526,VALID,174,VALID,0.259766,
2006-04-08, 01:51:00,VALID,916.73,VALID,0,VALID,100,VALID,-0.101885,VALID,19.5169,VALID,174,VALID,0,
2006-04-08, 01:52:00,VALID,916.728,VALID,0,VALID,100,VALID,-0.0849042,VALID,19.4501,VALID,162,VALID,0.352564,
2006-04-08, 01:53:00,VALID,916.692,VALID,0,VALID,100,VALID,-0.101885,VALID,19.8354,VALID,29,VALID,0.79851,
2006-04-08, 01:54:00,VALID,916.677,VALID,0,VALID,100,VALID,-0.135847,VALID,20.0452,VALID,29,VALID,0.735243,
2006-04-08, 01:55:00,VALID,916.65,VALID,0,VALID,100,VALID,-0.186789,VALID,19.6131,VALID,29,VALID,0.523242,
2006-04-08, 01:56:00,VALID,916.612,VALID,0,VALID,100,VALID,-0.101885,VALID,19.3504,VALID,29,VALID,0.178779,
2006-04-08, 01:57:00,VALID,916.565,VALID,0,VALID,100,VALID,-0.20377,VALID,19.4352,VALID,29,VALID,0.139022,
2006-04-08, 01:58:00,VALID,916.51,VALID,0,VALID,100,VALID,-0.20377,VALID,19.3908,VALID,29,VALID,0,
2006-04-08, 01:59:00,VALID,916.46,VALID,0,VALID,100,VALID,-0.169808,VALID,18.879,VALID,29,VALID,0,
2006-04-08, 02:00:00,VALID,916.422,VALID,0,VALID,100,VALID,-0.169808,VALID,18.9266,VALID,29,VALID,0.00104167,
2006-04-08, 02:01:00,VALID,916.397,VALID,0,VALID,100,VALID,-0.20377,VALID,19.7913,VALID,29,VALID,0.000363372,
2006-04-08, 02:02:00,VALID,916.37,VALID,0,VALID,100,VALID,-0.169808,VALID,19.421,VALID,29,VALID,0.0950218,
2006-04-08, 02:03:00,VALID,916.368,VALID,0,VALID,100,VALID,-0.0849042,VALID,18.3181,VALID,29,VALID,0.00218023,
2006-04-08, 02:04:00,VALID,916.36,VALID,0,VALID,100,VALID,-0.186789,VALID,19.8219,VALID,29,VALID,0.104167,
2006-04-08, 02:05:00,VALID,916.359,VALID,0,VALID,100,VALID,-0.0849042,VALID,18.9777,VALID,29,VALID,0.339844,
2006-04-08, 02:06:00,VALID,916.338,VALID,0,VALID,100,VALID,-0.101885,VALID,19.2516,VALID,43,VALID,0.558117,
2006-04-08, 02:07:00,VALID,916.348,VALID,0,VALID,100,VALID,-0.186789,VALID,19.6003,VALID,96,VALID,0.992001,
2006-04-08, 02:08:00,VALID,916.333,VALID,0,VALID,100,VALID,-0.101885,VALID,20.1431,VALID,110,VALID,0.832201,
2006-04-08, 02:09:00,VALID,916.314,VALID,0,VALID,100,VALID,-0.401257,VALID,18.7557,VALID,110,VALID,0.653472,
2006-04-08, 02:10:00,VALID,916.295,VALID,0,VALID,100,VALID,-0.0849042,VALID,19.1425,VALID,110,VALID,0.453506,
2006-04-08, 02:11:00,VALID,916.294,VALID,0,VALID,100,VALID,-0.101885,VALID,18.7939,VALID,110,VALID,0.20122,
2006-04-08, 02:12:00,VALID,916.281,VALID,0,VALID,100,VALID,-0.101885,VALID,19.3769,VALID,110,VALID,0.111133,
2006-04-08, 02:13:00,VALID,916.275,VALID,0,VALID,100,VALID,-0.118866,VALID,19.5353,VALID,110,VALID,0.192708,
2006-04-08, 02:14:00,VALID,916.263,VALID,0,VALID,100,VALID,-0.169808,VALID,19.2183,VALID,110,VALID,0.337462,
2006-04-08, 02:15:00,VALID,916.256,VALID,0,VALID,100,VALID,-0.152827,VALID,18.4724,VALID,109,VALID,0.460747,
2006-04-08, 02:16:00,VALID,916.237,VALID,0,VALID,100,VALID,-0.0339617,VALID,19.504,VALID,109,VALID,0.277344,
2006-04-08, 02:17:00,VALID,916.251,VALID,0,VALID,100,VALID,-0.20377,VALID,18.5968,VALID,109,VALID,0.0485899,
2006-04-08, 02:18:00,VALID,916.253,VALID,0,VALID,100,VALID,-0.20377,VALID,19.2078,VALID,109,VALID,0.226732,
2006-04-08, 02:19:00,VALID,916.23,VALID,0,VALID,100,VALID,-0.20377,VALID,19.192,VALID,109,VALID,0.203125,
2006-04-08, 02:20:00,VALID,916.213,VALID,0,VALID,100,VALID,-0.20377,VALID,18.9072,VALID,109,VALID,0,
2006-04-08, 02:21:00,VALID,916.202,VALID,0,VALID,100,VALID,-0.169808,VALID,20.0449,VALID,109,VALID,0.0580357,
2006-04-08, 02:22:00,VALID,916.19,VALID,0,VALID,100,VALID,-0.186789,VALID,19.5214,VALID,109,VALID,0.375558,
2006-04-08, 02:23:00,VALID,916.163,VALID,0,VALID,100,VALID,-0.152827,VALID,19.8303,VALID,98,VALID,0.503452,
2006-04-08, 02:24:00,VALID,916.154,VALID,0,VALID,100,VALID,-0.220751,VALID,18.0446,VALID,81,VALID,0.397017,
2006-04-08, 02:25:00,VALID,916.14,VALID,0,VALID,100,VALID,-0.169808,VALID,18.4664,VALID,75,VALID,0.321114,
2006-04-08, 02:26:00,VALID,916.137,VALID,0,VALID,100,VALID,-0.186789,VALID,18.7114,VALID,75,VALID,0.166606,
2006-04-08, 02:27:00,VALID,916.117,VALID,0,VALID,100,VALID,-0.186789,VALID,20.1672,VALID,75,VALID,0.0769531,
2006-04-08, 02:28:00,VALID,916.088,VALID,0,VALID,100,VALID,-0.101885,VALID,19.5271,VALID,75,VALID,0.129246,
2006-04-08, 02:29:00,VALID,916.068,VALID,0,VALID,100,VALID,-0.0849042,VALID,18.7629,VALID,75,VALID,0.148438,
2006-04-08, 02:30:00,VALID,916.046,VALID,0,VALID,100,VALID,-0.220751,VALID,18.327,VALID,75,VALID,0.162791,
2006-04-08, 02:31:00,VALID,916.019,VALID,0,VALID,100,VALID,-0.20377,VALID,20.7007,VALID,75,VALID,0.125191,
2006-04-08, 02:32:00,VALID,915.996,VALID,0,VALID,100,VALID,-0.186789,VALID,18.9131,VALID,75,VALID,0.0645032,
2006-04-08, 02:33:00,VALID,915.973,VALID,0,VALID,100,VALID,-0.101885,VALID,19.3654,VALID,75,VALID,0.132267,
2006-04-08, 02:34:00,VALID,915.948,VALID,0,VALID,100,VALID,-0.118866,VALID,19.5392,VALID,75,VALID,0.0381541,
2006-04-08, 02:35:00,VALID,915.936,VALID,0,VALID,100,VALID,-0.20377,VALID,19.7771,VALID,75,VALID,0.126817,
2006-04-08, 02:36:00,VALID,915.918,VALID,0,VALID,100,VALID,-0.20377,VALID,18.0924,VALID,75,VALID,0.00550426,
2006-04-08, 02:37:00,VALID,915.916,VALID,0,VALID,100,VALID,-0.20377,VALID,19.4897,VALID,75,VALID,0,
2006-04-08, 02:38:00,VALID,915.908,VALID,0,VALID,100,VALID,-0.20377,VALID,19.2362,VALID,75,VALID,0,
2006-04-08, 02:39:00,VALID,915.913,VALID,0,VALID,100,VALID,-0.118866,VALID,18.6022,VALID,75,VALID,0,
2006-04-08, 02:40:00,VALID,915.907,VALID,0,VALID,100,VALID,-1,VALID,19.2484,VALID,75,VALID,0.107244,
2006-04-08, 02:41:00,VALID,915.903,VALID,0,VALID,100,VALID,-1,VALID,19.6811,VALID,75,VALID,0.0176711,
2006-04-08, 02:42:00,VALID,915.874,VALID,0,VALID,100,VALID,-1,VALID,18.9869,VALID,75,VALID,0,
2006-04-08, 02:43:00,VALID,915.871,VALID,0,VALID,100,VALID,-1,VALID,19.659,VALID,75,VALID,0,
2006-04-08, 02:44:00,VALID,915.856,VALID,0,VALID,100,VALID,-1,VALID,19.6342,VALID,75,VALID,0,
2006-04-08, 02:45:00,VALID,915.841,VALID,0,VALID,100,VALID,-0.850314,VALID,19.0697,VALID,75,VALID,0.0529297,
2006-04-08, 02:46:00,VALID,915.813,VALID,0,VALID,100,VALID,-0.118866,VALID,19.5513,VALID,75,VALID,0.278582,
2006-04-08, 02:47:00,VALID,915.798,VALID,0,VALID,100,VALID,-0.186789,VALID,18.7883,VALID,75,VALID,0.328658,
2006-04-08, 02:48:00,VALID,915.805,VALID,0,VALID,100,VALID,-0.186789,VALID,18.8904,VALID,75,VALID,0.483817,
2006-04-08, 02:49:00,VALID,915.809,VALID,0,VALID,100,VALID,-0.101885,VALID,19.1136,VALID,75,VALID,0.363467,
2006-04-08, 02:50:00,VALID,915.813,VALID,0,VALID,100,VALID,-0.0849042,VALID,19.0045,VALID,75,VALID,0.420117,
2006-04-08, 02:51:00,VALID,915.81,VALID,0,VALID,100,VALID,-0.20377,VALID,19.6486,VALID,78,VALID,0.53404,
2006-04-08, 02:52:00,VALID,915.816,VALID,0,VALID,100,VALID,-0.169808,VALID,18.9983,VALID,95,VALID,0.52934,
2006-04-08, 02:53:00,VALID,915.815,VALID,0,VALID,100,VALID,-0.20377,VALID,18.8158,VALID,110,VALID,0.677083,
2006-04-08, 02:54:00,VALID,915.819,VALID,0,VALID,100,VALID,-0.152827,VALID,19.0043,VALID,119,VALID,0.518293,
2006-04-08, 02:55:00,VALID,915.809,VALID,0,VALID,100,VALID,-0.101885,VALID,18.7657,VALID,121,VALID,0.544643,
2006-04-08, 02:56:00,VALID,915.791,VALID,0,VALID,100,VALID,-0.0509425,VALID,19.1375,VALID,121,VALID,0.443859,
2006-04-08, 02:57:00,VALID,915.767,VALID,0,VALID,100,VALID,-0.0849042,VALID,19.161,VALID,121,VALID,0.57303,
2006-04-08, 02:58:00,VALID,915.759,VALID,0,VALID,100,VALID,-0.0509425,VALID,18.9332,VALID,121,VALID,0.691034,
2006-04-08, 02:59:00,VALID,915.746,VALID,0,VALID,100,VALID,-0.0849042,VALID,19.7177,VALID,121,VALID,0.624273,
2006-04-08, 03:00:00,VALID,915.72,VALID,0,VALID,100,VALID,-0.0849042,VALID,19.1601,VALID,121,VALID,0.701758,
2006-04-08, 03:01:00,VALID,915.7,VALID,0,VALID,100,VALID,-0.152827,VALID,19.6885,VALID,121,VALID,0.757626,
2006-04-08, 03:02:00,VALID,915.667,VALID,0,VALID,100,VALID,-0.101885,VALID,18.9904,VALID,121,VALID,0.906994,
2006-04-08, 03:03:00,VALID,915.648,VALID,0,VALID,100,VALID,-0.186789,VALID,19.6698,VALID,121,VALID,0.724653,
2006-04-08, 03:04:00,VALID,915.64,VALID,0,VALID,100,VALID,-0.169808,VALID,19.1602,VALID,121,VALID,0.873958,
2006-04-08, 03:05:00,VALID,915.615,VALID,0,VALID,100,VALID,-0.20377,VALID,19.4608,VALID,121,VALID,0.858132,
2006-04-08, 03:06:00,VALID,915.602,VALID,0,VALID,100,VALID,-0.20377,VALID,19.4842,VALID,121,VALID,0.705221,
2006-04-08, 03:07:00,VALID,915.598,VALID,0,VALID,100,VALID,-0.20377,VALID,19.5388,VALID,118,VALID,0.409702,
2006-04-08, 03:08:00,VALID,915.565,VALID,0,VALID,100,VALID,-0.20377,VALID,19.7056,VALID,109,VALID,0.329459,
2006-04-08, 03:09:00,VALID,915.543,VALID,0,VALID,100,VALID,-0.20377,VALID,19.5229,VALID,109,VALID,0.59737,
2006-04-08, 03:10:00,VALID,915.53,VALID,0,VALID,100,VALID,-0.452199,VALID,18.9209,VALID,113,VALID,0.645198,
2006-04-08, 03:11:00,VALID,915.512,VALID,0,VALID,100,VALID,-0.118866,VALID,19.4754,VALID,118,VALID,0.66673,
2006-04-08, 03:12:00,VALID,915.501,VALID,0,VALID,100,VALID,-0.169808,VALID,19.7509,VALID,123,VALID,0.757813,
2006-04-08, 03:13:00,VALID,915.482,VALID,0,VALID,100,VALID,-0.152827,VALID,19.7122,VALID,124,VALID,0.565874,
2006-04-08, 03:14:00,VALID,915.454,VALID,0,VALID,100,VALID,-0.169808,VALID,19.475,VALID,124,VALID,0.550781,
2006-04-08, 03:15:00,VALID,915.424,VALID,0,VALID,100,VALID,-0.186789,VALID,18.7034,VALID,124,VALID,0.634511,
2006-04-08, 03:16:00,VALID,915.406,VALID,0,VALID,100,VALID,-0.186789,VALID,18.3395,VALID,117,VALID,0.42934,
2006-04-08, 03:17:00,VALID,915.396,VALID,0,VALID,100,VALID,-0.135847,VALID,20.3817,VALID,113,VALID,0.11101,
2006-04-08, 03:18:00,VALID,915.376,VALID,0,VALID,100,VALID,-0.169808,VALID,18.1986,VALID,113,VALID,0.0917515,
2006-04-08, 03:19:00,VALID,915.367,VALID,0,VALID,100,VALID,-0.152827,VALID,19.3958,VALID,113,VALID,0.106771,
2006-04-08, 03:20:00,VALID,915.349,VALID,0,VALID,100,VALID,-0.20377,VALID,18.5421,VALID,113,VALID,0,
2006-04-08, 03:21:00,VALID,915.327,VALID,0,VALID,100,VALID,-0.152827,VALID,18.7938,VALID,113,VALID,0.187128,
2006-04-08, 03:22:00,VALID,915.317,VALID,0,VALID,100,VALID,-0.169808,VALID,18.9835,VALID,113,VALID,0.446987,
2006-04-08, 03:23:00,VALID,915.316,VALID,0,VALID,100,VALID,-0.186789,VALID,19.4262,VALID,113,VALID,0.723214,
2006-04-08, 03:24:00,VALID,915.308,VALID,0,VALID,100,VALID,-0.169808,VALID,19.2174,VALID,117,VALID,0.604911,
2006-04-08, 03:25:00,VALID,915.294,VALID,0,VALID,100,VALID,-0.20377,VALID,18.8773,VALID,109,VALID,0.487216,
2006-04-08, 03:26:00,VALID,915.283,VALID,0,VALID,100,VALID,-0.186789,VALID,19.7797,VALID,112,VALID,0.759909,
2006-04-08, 03:27:00,VALID,915.263,VALID,0,VALID,100,VALID,-0.169808,VALID,18.3896,VALID,107,VALID,0.850419,
2006-04-08, 03:28:00,VALID,915.248,VALID,0,VALID,100,VALID,-0.186789,VALID,18.6918,VALID,109,VALID,1.13002,
2006-04-08, 03:29:00,VALID,915.226,VALID,0,VALID,100,VALID,-0.135847,VALID,18.6074,VALID,116,VALID,1.02951,
2006-04-08, 03:30:00,VALID,915.214,VALID,0,VALID,100,VALID,-0.152827,VALID,19.0972,VALID,121,VALID,0.669212,
2006-04-08, 03:31:00,VALID,915.207,VALID,0,VALID,100,VALID,-0.0849042,VALID,20.2318,VALID,139,VALID,0.305051,
2006-04-08, 03:32:00,VALID,915.181,VALID,0,VALID,100,VALID,-0.0849042,VALID,20.0973,VALID,138,VALID,0.210379,
2006-04-08, 03:33:00,VALID,915.168,VALID,0,VALID,100,VALID,-0.101885,VALID,19.896,VALID,126,VALID,0.706771,
2006-04-08, 03:34:00,VALID,915.147,VALID,0,VALID,100,VALID,-0.118866,VALID,19.3561,VALID,118,VALID,0.520275,
2006-04-08, 03:35:00,VALID,915.14,VALID,0,VALID,100,VALID,-0.169808,VALID,18.9448,VALID,99,VALID,0.436806,
2006-04-08, 03:36:00,VALID,915.131,VALID,0,VALID,100,VALID,-0.152827,VALID,18.4593,VALID,96,VALID,0.406064,
2006-04-08, 03:37:00,VALID,915.124,VALID,0,VALID,100,VALID,-0.0849042,VALID,18.9318,VALID,89,VALID,0.67702,
2006-04-08, 03:38:00,VALID,915.116,VALID,0,VALID,100,VALID,-0.101885,VALID,19.8545,VALID,83,VALID,0.73601,
2006-04-08, 03:39:00,VALID,915.137,VALID,0,VALID,100,VALID,-0.0679233,VALID,20.5576,VALID,74,VALID,0.766533,
2006-04-08, 03:40:00,VALID,915.138,VALID,0,VALID,100,VALID,-0.0679233,VALID,19.4616,VALID,71,VALID,0.542225,
2006-04-08, 03:41:00,VALID,915.118,VALID,0,VALID,100,VALID,-0.0339617,VALID,18.0562,VALID,71,VALID,0.602289,
2006-04-08, 03:42:00,VALID,915.102,VALID,0,VALID,100,VALID,-0.0339617,VALID,19.3089,VALID,71,VALID,0.625888,